Mason City, IA

4:25 AM CDT on May 29, 2017 (GMT -0500)
Mason City Municipal

Weather History for KMCW - October, 2013

Change the Weather History Date:

Saturday, October 12, 2013

  Actual Average Record
Temperature  
Mean Temperature 51 °F 50 °F  
Max Temperature 64 °F 62 °F 89 °F (1975)
Min Temperature 37 °F 38 °F 21 °F (1917)
Degree Days  
Heating Degree Days 14 15  
Month to date heating degree days 73 161  
Since 1 July heating degree days 231 374  
Cooling Degree Days 0 0  
Month to date cooling degree days 6 2  
Year to date cooling degree days 718 612  
Growing Degree Days 2 (Base 50)    
Moisture  
Dew Point 37 °F    
Average Humidity 54    
Maximum Humidity 80    
Minimum Humidity 27    
Precipitation  
Precipitation 0.00 in 0.08 in 2.05 in (1914)
Month to date precipitation 1.08 1.07  
Year to date precipitation 35.29 30.70  
Snow  
Snow 0.00 in 0.00 in 0.70 in (2006)
Month to date snowfall 0.0 0.0  
Since 1 July snowfall 0.0 0.0  
Since 1 September snowfall 0.0 0.0  
Snow Depth 0.00 in    
Sea Level Pressure  
Sea Level Pressure 30.02 in    
Wind  
Wind Speed 13 mph (West)    
Max Wind Speed 29 mph    
Max Gust Speed 36 mph    
Visibility 10 miles    
Events      
T = Trace of Precipitation, MM = Missing Value Source: NWS Daily Summary

Daily Weather History Graph

Daily Weather History Graph

Search for Another Location

Airport or City:

Trip Planner

Search our weather history database for the weather conditions in past years. The results will help you decide how hot, cold, wet, or windy it might be!

Date:

Astronomy

Oct. 12, 2013 Rise Set
Actual Time 7:23 AM CDT 6:34 PM CDT
Civil Twilight 6:55 AM CDT 7:03 PM CDT
Nautical Twilight 6:22 AM CDT 7:36 PM CDT
Astronomical Twilight 5:49 AM CDT 8:09 PM CDT
Moon 2:54 PM CDT (10/12) 12:17 AM CDT (10/12)
Length of Visible Light 12h 08m
Length of Day
11h 11m
First Quarter, 59% of the Moon is Illuminated
Oct 12
First Quarter
Oct 18
Full
Oct 26
Last Quarter
Nov 3
New
Nov 9
First Quarter

Hourly Weather History & Observations

Time (CDT) Temp. Windchill Dew Point Humidity Pressure Visibility Wind Dir Wind Speed Gust Speed Precip Events Conditions
12:53 AM 55.9 °F - 48.9 °F 77% 29.82 in 10.0 mi West 16.1 mph - N/A   Clear
1:53 AM 53.1 °F - 45.0 °F 74% 29.83 in 10.0 mi West 12.7 mph - N/A   Mostly Cloudy
2:53 AM 52.0 °F - 44.1 °F 74% 29.86 in 10.0 mi West 11.5 mph - N/A   Clear
3:53 AM 51.1 °F - 43.0 °F 74% 29.86 in 10.0 mi West 12.7 mph - N/A   Clear
4:53 AM 50.0 °F - 43.0 °F 77% 29.88 in 10.0 mi West 9.2 mph - N/A   Clear
5:53 AM 48.9 °F - 42.1 °F 77% 29.92 in 10.0 mi WSW 11.5 mph - N/A   Clear
6:53 AM 48.0 °F - 41.0 °F 77% 29.93 in 10.0 mi West 12.7 mph - N/A   Clear
7:53 AM 48.0 °F - 42.1 °F 80% 29.96 in 10.0 mi WSW 10.4 mph - N/A   Clear
8:53 AM 48.9 °F - 42.1 °F 77% 29.98 in 10.0 mi WSW 12.7 mph - N/A   Clear
9:53 AM 53.1 °F - 41.0 °F 64% 29.99 in 10.0 mi WSW 15.0 mph 21.9 mph N/A   Clear
10:53 AM 55.0 °F - 41.0 °F 59% 30.01 in 10.0 mi West 12.7 mph 21.9 mph N/A   Clear
11:53 AM 59.0 °F - 39.0 °F 48% 30.01 in 10.0 mi West 21.9 mph 29.9 mph N/A   Clear
12:53 PM 62.1 °F - 37.0 °F 39% 30.02 in 10.0 mi West 23.0 mph 29.9 mph N/A   Clear
1:53 PM 63.0 °F - 35.1 °F 35% 30.03 in 10.0 mi West 23.0 mph 33.4 mph N/A   Clear
2:53 PM 63.0 °F - 30.9 °F 30% 30.04 in 10.0 mi West 25.3 mph 32.2 mph N/A   Clear
3:53 PM 63.0 °F - 33.1 °F 33% 30.06 in 10.0 mi West 17.3 mph 25.3 mph N/A   Clear
4:53 PM 63.0 °F - 28.9 °F 28% 30.07 in 10.0 mi West 17.3 mph 23.0 mph N/A   Clear
5:53 PM 60.1 °F - 28.9 °F 31% 30.09 in 10.0 mi West 13.8 mph - N/A   Clear
6:53 PM 51.1 °F - 30.9 °F 46% 30.12 in 10.0 mi West 8.1 mph - N/A   Clear
7:53 PM 46.9 °F - 30.9 °F 54% 30.15 in 10.0 mi West 9.2 mph - N/A   Clear
8:53 PM 44.1 °F 39.5 °F 30.0 °F 58% 30.17 in 10.0 mi West 8.1 mph - N/A   Clear
9:53 PM 41.0 °F 34.7 °F 30.9 °F 67% 30.19 in 10.0 mi West 10.4 mph - N/A   Clear
10:53 PM 41.0 °F 35.8 °F 30.9 °F 67% 30.22 in 10.0 mi West 8.1 mph - N/A   Clear
11:53 PM 39.0 °F 33.4 °F 30.9 °F 73% 30.25 in 10.0 mi West 8.1 mph - N/A   Clear